TIME,�g�[�{�C���[-���� [L],�t���O,�����{�C���[-���� [L],�t���O,�g�[�{�C���[-���� [MJ/h],�t���O,�����{�C���[-���� [MJ/h],�t���O
2003/2/1 0:00,0.087584,0,0,0,12.8573312,0,0,0
2003/2/1 0:15,0.082754,0,0,0,12.1482872,0,0,0
2003/2/1 0:30,0.090321,0,0,0,13.2591228,0,0,0
2003/2/1 0:45,0.032039,0,0,0,4.7033252,0,0,0
2003/2/1 1:00,0,0,0,0,0,0,0,0
2003/2/1 1:15,0,0,0,0,0,0,0,0
2003/2/1 1:30,0,0,0,0,0,0,0,0
2003/2/1 1:45,0,0,0,0,0,0,0,0
2003/2/1 2:00,0,0,0,0,0,0,0,0
2003/2/1 2:15,0,0,0,0,0,0,0,0
2003/2/1 2:30,0,0,0,0,0,0,0,0
2003/2/1 2:45,0,0,0,0,0,0,0,0
2003/2/1 3:00,0,0,0,0,0,0,0,0
2003/2/1 3:15,0,0,0,0,0,0,0,0
2003/2/1 3:30,0,0,0,0,0,0,0,0
2003/2/1 3:45,0,0,0,0,0,0,0,0
2003/2/1 4:00,0,0,0,0,0,0,0,0
2003/2/1 4:15,0,0,0,0,0,0,0,0
2003/2/1 4:30,0,0,0,0,0,0,0,0
2003/2/1 4:45,0,0,0,0,0,0,0,0
2003/2/1 5:00,0,0,0,0,0,0,0,0
2003/2/1 5:15,0,0,0,0,0,0,0,0
2003/2/1 5:30,0,0,0,0,0,0,0,0
2003/2/1 5:45,0,0,0,0,0,0,0,0
2003/2/1 6:00,0,0,0,0,0,0,0,0
2003/2/1 6:15,0,0,0,0,0,0,0,0
2003/2/1 6:30,0,0,0,0,0,0,0,0
2003/2/1 6:45,0,0,0,0,0,0,0,0
2003/2/1 7:00,0,0,0,0,0,0,0,0
2003/2/1 7:15,0.045241,0,0,0,6.6413788,0,0,0
2003/2/1 7:30,0.093702,0,0,0,13.7554536,0,0,0
2003/2/1 7:45,0.089677,0,0,0,13.1645836,0,0,0
2003/2/1 8:00,0.089033,0,0,0,13.0700444,0,0,0
2003/2/1 8:15,0.081949,0,0,0,12.0301132,0,0,0
2003/2/1 8:30,0.086135,0,0,0,12.644618,0,0,0
2003/2/1 8:45,0.088711,0,0.085974,0,13.0227748,0,12.6209832,0
2003/2/1 9:00,0.088711,0,0,0,13.0227748,0,0,0
2003/2/1 9:15,0.088711,0,0,0,13.0227748,0,0,0
2003/2/1 9:30,0.088389,0,0,0,12.9755052,0,0,0
2003/2/1 9:45,0.088389,0,0,0,12.9755052,0,0,0
2003/2/1 10:00,0.086135,0,0,0,12.644618,0,0,0
2003/2/1 10:15,0.086618,0,0,0,12.7155224,0,0,0
2003/2/1 10:30,0.084042,0,0,0,12.3373656,0,0,0
2003/2/1 10:45,0.08211,0,0,0,12.053748,0,0,0
2003/2/1 11:00,0.087906,0,0,0,12.9046008,0,0,0
2003/2/1 11:15,0.083237,0,0,0,12.2191916,0,0,0
2003/2/1 11:30,0.086618,0,0,0,12.7155224,0,0,0
2003/2/1 11:45,0.083076,0,0,0,12.1955568,0,0,0
2003/2/1 12:00,0.087101,0,0,0,12.7864268,0,0,0
2003/2/1 12:15,0.084042,0,0,0,12.3373656,0,0,0
2003/2/1 12:30,0.081144,0,0,0,11.9119392,0,0,0
2003/2/1 12:45,0.08211,0,0,0,12.053748,0,0,0
2003/2/1 13:00,0.085169,0,0,0,12.5028092,0,0,0
2003/2/1 13:15,0.082754,0,0,0,12.1482872,0,0,0
2003/2/1 13:30,0.081144,0,0,0,11.9119392,0,0,0
2003/2/1 13:45,0.081144,0,0,0,11.9119392,0,0,0
2003/2/1 14:00,0.084364,0,0,0,12.3846352,0,0,0
2003/2/1 14:15,0.066493,0,0,0,9.7611724,0,0,0
2003/2/1 14:30,0.082432,0,0,0,12.1010176,0,0,0
2003/2/1 14:45,0.012397,0,0,0,1.8198796,0,0,0
2003/2/1 15:00,0.0161,0,0,0,2.36348,0,0,0
2003/2/1 15:15,0.015778,0,0,0,2.3162104,0,0,0
2003/2/1 15:30,0.010626,0,0,0,1.5598968,0,0,0
2003/2/1 15:45,0.015456,0,0,0,2.2689408,0,0,0
2003/2/1 16:00,0.015456,0,0,0,2.2689408,0,0,0
2003/2/1 16:15,0.03864,0,0,0,5.672352,0,0,0
2003/2/1 16:30,0.083237,0,0,0,12.2191916,0,0,0
2003/2/1 16:45,0.015295,0,0,0,2.245306,0,0,0
2003/2/1 17:00,0.088872,0,0,0,13.0464096,0,0,0
2003/2/1 17:15,0.083076,0,0,0,12.1955568,0,0,0
2003/2/1 17:30,0.08211,0,0,0,12.053748,0,0,0
2003/2/1 17:45,0.078407,0,0,0,11.5101476,0,0,0
2003/2/1 18:00,0.080339,0,0,0,11.7937652,0,0,0
2003/2/1 18:15,0.07889,0,0,0,11.581052,0,0,0
2003/2/1 18:30,0.045402,0,0,0,6.6650136,0,0,0
2003/2/1 18:45,0.048944,0,0,0,7.1849792,0,0,0
2003/2/1 19:00,0.083881,0,0,0,12.3137308,0,0,0
2003/2/1 19:15,0.080017,0,0,0,11.7464956,0,0,0
2003/2/1 19:30,0.077119,0,0,0,11.3210692,0,0,0
2003/2/1 19:45,0.086618,0,0,0,12.7155224,0,0,0
2003/2/1 20:00,0.079856,0,0,0,11.7228608,0,0,0
2003/2/1 20:15,0.081627,0,0,0,11.9828436,0,0,0
2003/2/1 20:30,0.07728,0,0,0,11.344704,0,0,0
2003/2/1 20:45,0.080983,0,0,0,11.8883044,0,0,0
2003/2/1 21:00,0.085813,0,0,0,12.5973484,0,0,0
2003/2/1 21:15,0.077441,0,0,0,11.3683388,0,0,0
2003/2/1 21:30,0.08372,0,0,0,12.290096,0,0,0
2003/2/1 21:45,0.081144,0,0,0,11.9119392,0,0,0
2003/2/1 22:00,0.070518,0,0,0,10.3520424,0,0,0
2003/2/1 22:15,0.081949,0,0,0,12.0301132,0,0,0
2003/2/1 22:30,0.077602,0,0,0,11.3919736,0,0,0
2003/2/1 22:45,0.07889,0,0,0,11.581052,0,0,0
2003/2/1 23:00,0.083076,0,0,0,12.1955568,0,0,0
2003/2/1 23:15,0.063273,0,0,0,9.2884764,0,0,0
2003/2/1 23:30,0,0,0,0,0,0,0,0
2003/2/1 23:45,0.035259,0,0,0,5.1760212,0,0,0
2003/2/2 0:00,0.037352,0,0,0,5.4832736,0,0,0
2003/2/2 0:15,0.08533,0,0,0,12.526444,0,0,0
2003/2/2 0:30,0,0,0,0,0,0,0,0
2003/2/2 0:45,0.090321,0,0,0,13.2591228,0,0,0
2003/2/2 1:00,0.060214,0,0,0,8.8394152,0,0,0
2003/2/2 1:15,0,0,0,0,0,0,0,0
2003/2/2 1:30,0,0,0,0,0,0,0,0
2003/2/2 1:45,0,0,0,0,0,0,0,0
2003/2/2 2:00,0,0,0,0,0,0,0,0
2003/2/2 2:15,0,0,0,0,0,0,0,0
2003/2/2 2:30,0,0,0,0,0,0,0,0
2003/2/2 2:45,0,0,0,0,0,0,0,0
2003/2/2 3:00,0,0,0,0,0,0,0,0
2003/2/2 3:15,0,0,0,0,0,0,0,0
2003/2/2 3:30,0,0,0,0,0,0,0,0
2003/2/2 3:45,0,0,0,0,0,0,0,0
2003/2/2 4:00,0,0,0,0,0,0,0,0
2003/2/2 4:15,0,0,0,0,0,0,0,0
2003/2/2 4:30,0,0,0,0,0,0,0,0
2003/2/2 4:45,0,0,0,0,0,0,0,0
2003/2/2 5:00,0,0,0,0,0,0,0,0
2003/2/2 5:15,0,0,0,0,0,0,0,0
2003/2/2 5:30,0,0,0,0,0,0,0,0
2003/2/2 5:45,0,0,0,0,0,0,0,0
2003/2/2 6:00,0,0,0,0,0,0,0,0
2003/2/2 6:15,0,0,0,0,0,0,0,0
2003/2/2 6:30,0,0,0,0,0,0,0,0
2003/2/2 6:45,0,0,0,0,0,0,0,0
2003/2/2 7:00,0,0,0,0,0,0,0,0
2003/2/2 7:15,0,0,0,0,0,0,0,0
2003/2/2 7:30,0.072933,0,0,0,10.7065644,0,0,0
2003/2/2 7:45,0.094668,0,0.10626,0,13.8972624,0,15.598968,0
2003/2/2 8:00,0.080822,0,0.186277,0,11.8646696,0,27.3454636,0
2003/2/2 8:15,0.090804,0,0.556577,0,13.3300272,0,81.7055036,0
2003/2/2 8:30,0.07889,0,0.039606,0,11.581052,0,5.8141608,0
2003/2/2 8:45,0.07728,0,0,0,11.344704,0,0,0
2003/2/2 9:00,0.078085,0,0.108514,0,11.462878,0,15.9298552,0
2003/2/2 9:15,0.078085,0,0,0,11.462878,0,0,0
2003/2/2 9:30,0.046368,0,0,0,6.8068224,0,0,0
2003/2/2 9:45,0.0161,0,0,0,2.36348,0,0,0
2003/2/2 10:00,0.010948,0,0,0,1.6071664,0,0,0
2003/2/2 10:15,0.079856,0,0,0,11.7228608,0,0,0
2003/2/2 10:30,0.079212,0,0,0,11.6283216,0,0,0
2003/2/2 10:45,0.06601,0,0,0,9.690268,0,0,0
2003/2/2 11:00,0.078568,0,0,0,11.5337824,0,0,0
2003/2/2 11:15,0.078568,0,0,0,11.5337824,0,0,0
2003/2/2 11:30,0.078568,0,0,0,11.5337824,0,0,0
2003/2/2 11:45,0.039606,0,0,0,5.8141608,0,0,0
2003/2/2 12:00,0.01771,0,0,0,2.599828,0,0,0
2003/2/2 12:15,0.011109,0,0,0,1.6308012,0,0,0
2003/2/2 12:30,0.02576,0,0,0,3.781568,0,0,0
2003/2/2 12:45,0.0483,0,0,0,7.09044,0,0,0
2003/2/2 13:00,0.076636,0,0,0,11.2501648,0,0,0
2003/2/2 13:15,0.083881,0,0,0,12.3137308,0,0,0
2003/2/2 13:30,0.084042,0,0,0,12.3373656,0,0,0
2003/2/2 13:45,0.082754,0,0,0,12.1482872,0,0,0
2003/2/2 14:00,0.086135,0,0,0,12.644618,0,0,0
2003/2/2 14:15,0.086618,0,0,0,12.7155224,0,0,0
2003/2/2 14:30,0.083559,0,0,0,12.2664612,0,0,0
2003/2/2 14:45,0.083398,0,0,0,12.2428264,0,0,0
2003/2/2 15:00,0.081305,0,0,0,11.935574,0,0,0
2003/2/2 15:15,0.086779,0,0,0,12.7391572,0,0,0
2003/2/2 15:30,0.084364,0,0,0,12.3846352,0,0,0
2003/2/2 15:45,0.079051,0,0,0,11.6046868,0,0,0
2003/2/2 16:00,0.079695,0,0,0,11.699226,0,0,0
2003/2/2 16:15,0.077602,0,0,0,11.3919736,0,0,0
2003/2/2 16:30,0.078729,0,0,0,11.5574172,0,0,0
2003/2/2 16:45,0.01449,0,0,0,2.127132,0,0,0
2003/2/2 17:00,0.009821,0,0,0,1.4417228,0,0,0
2003/2/2 17:15,0.010304,0,0,0,1.5126272,0,0,0
2003/2/2 17:30,0.078568,0,0,0,11.5337824,0,0,0
2003/2/2 17:45,0.080822,0,0,0,11.8646696,0,0,0
2003/2/2 18:00,0.080017,0,0,0,11.7464956,0,0,0
2003/2/2 18:15,0.077119,0,0,0,11.3210692,0,0,0
2003/2/2 18:30,0.085491,0,0,0,12.5500788,0,0,0
2003/2/2 18:45,0.07889,0,0,0,11.581052,0,0,0
2003/2/2 19:00,0.07728,0,0,0,11.344704,0,0,0
2003/2/2 19:15,0.035742,0,0,0,5.2469256,0,0,0
2003/2/2 19:30,0.046046,0,0,0,6.7595528,0,0,0
2003/2/2 19:45,0.080017,0,0,0,11.7464956,0,0,0
2003/2/2 20:00,0.066332,0,0,0,9.7375376,0,0,0
2003/2/2 20:15,0.079534,0,0,0,11.6755912,0,0,0
2003/2/2 20:30,0.078407,0,0,0,11.5101476,0,0,0
2003/2/2 20:45,0.079695,0,0,0,11.699226,0,0,0
2003/2/2 21:00,0.071001,0,0,0,10.4229468,0,0,0
2003/2/2 21:15,0.020125,0,0,0,2.95435,0,0,0
2003/2/2 21:30,0.044275,0,0,0,6.49957,0,0,0
2003/2/2 21:45,0.079373,0,0,0,11.6519564,0,0,0
2003/2/2 22:00,0.084686,0,0,0,12.4319048,0,0,0
2003/2/2 22:15,0.056672,0,0,0,8.3194496,0,0,0
2003/2/2 22:30,0.009338,0,0,0,1.3708184,0,0,0
2003/2/2 22:45,0.026243,0,0,0,3.8524724,0,0,0
2003/2/2 23:00,0.043309,0,0,0,6.3577612,0,0,0
2003/2/2 23:15,0.081144,0,0,0,11.9119392,0,0,0
2003/2/2 23:30,0.073577,0,0,0,10.8011036,0,0,0
2003/2/2 23:45,0.076636,0,0,0,11.2501648,0,0,0
2003/2/3 0:00,0.072772,0,0,0,10.6829296,0,0,0
2003/2/3 0:15,0.014007,0,0,0,2.0562276,0,0,0
2003/2/3 0:30,0.010143,0,0,0,1.4889924,0,0,0
2003/2/3 0:45,0.015939,0,0,0,2.3398452,0,0,0
2003/2/3 1:00,0.015778,0,0,0,2.3162104,0,0,0
2003/2/3 1:15,0.0161,0,0,0,2.36348,0,0,0
2003/2/3 1:30,0.03381,0,0,0,4.963308,0,0,0
2003/2/3 1:45,0.087262,0,0,0,12.8100616,0,0,0
2003/2/3 2:00,0.084525,0,0,0,12.40827,0,0,0
2003/2/3 2:15,0.084847,0,0,0,12.4555396,0,0,0
2003/2/3 2:30,0.083881,0,0,0,12.3137308,0,0,0
2003/2/3 2:45,0.085974,0,0,0,12.6209832,0,0,0
2003/2/3 3:00,0.08211,0,0,0,12.053748,0,0,0
2003/2/3 3:15,0.007245,0,0,0,1.063566,0,0,0
2003/2/3 3:30,0,0,0,0,0,0,0,0
2003/2/3 3:45,0,0,0,0,0,0,0,0
2003/2/3 4:00,0,0,0,0,0,0,0,0
2003/2/3 4:15,0,0,0,0,0,0,0,0
2003/2/3 4:30,0,0,0,0,0,0,0,0
2003/2/3 4:45,0,0,0,0,0,0,0,0
2003/2/3 5:00,0,0,0,0,0,0,0,0
2003/2/3 5:15,0,0,0,0,0,0,0,0
2003/2/3 5:30,0,0,0,0,0,0,0,0
2003/2/3 5:45,0,0,0,0,0,0,0,0
2003/2/3 6:00,0,0,0,0,0,0,0,0
2003/2/3 6:15,0.081466,0,0,0,11.9592088,0,0,0
2003/2/3 6:30,0.090321,0,0,0,13.2591228,0,0,0
2003/2/3 6:45,0.089516,0,0,0,13.1409488,0,0,0
2003/2/3 7:00,0.084525,0,0,0,12.40827,0,0,0
2003/2/3 7:15,0.087906,0,0,0,12.9046008,0,0,0
2003/2/3 7:30,0.084042,0,0,0,12.3373656,0,0,0
2003/2/3 7:45,0.087906,0,0,0,12.9046008,0,0,0
2003/2/3 8:00,0.083881,0,0.220892,0,12.3137308,0,32.4269456,0
2003/2/3 8:15,0.079373,0,0,0,11.6519564,0,0,0
2003/2/3 8:30,0.001449,0,0,0,0.2127132,0,0,0
2003/2/3 8:45,0,0,0,0,0,0,0,0
2003/2/3 9:00,0,0,0,0,0,0,0,0
2003/2/3 9:15,0,0,0,0,0,0,0,0
2003/2/3 9:30,0,0,0,0,0,0,0,0
2003/2/3 9:45,0,0,0,0,0,0,0,0
2003/2/3 10:00,0,0,0,0,0,0,0,0
2003/2/3 10:15,0,0,0,0,0,0,0,0
2003/2/3 10:30,0,0,0,0,0,0,0,0
2003/2/3 10:45,0,0,0,0,0,0,0,0
2003/2/3 11:00,0,0,0,0,0,0,0,0
2003/2/3 11:15,0,0,0,0,0,0,0,0
2003/2/3 11:30,0,0,0,0,0,0,0,0
2003/2/3 11:45,0,0,0,0,0,0,0,0
2003/2/3 12:00,0,0,0,0,0,0,0,0
2003/2/3 12:15,0,0,0,0,0,0,0,0
2003/2/3 12:30,0,0,0,0,0,0,0,0
2003/2/3 12:45,0,0,0,0,0,0,0,0
2003/2/3 13:00,0,0,0,0,0,0,0,0
2003/2/3 13:15,0,0,0,0,0,0,0,0
2003/2/3 13:30,0,0,0,0,0,0,0,0
2003/2/3 13:45,0,0,0,0,0,0,0,0
2003/2/3 14:00,0,0,0,0,0,0,0,0
2003/2/3 14:15,0,0,0,0,0,0,0,0
2003/2/3 14:30,0,0,0,0,0,0,0,0
2003/2/3 14:45,0,0,0,0,0,0,0,0
2003/2/3 15:00,0,0,0,0,0,0,0,0
2003/2/3 15:15,0,0,0,0,0,0,0,0
2003/2/3 15:30,0,0,0,0,0,0,0,0
2003/2/3 15:45,0,0,0,0,0,0,0,0
2003/2/3 16:00,0,0,0,0,0,0,0,0
2003/2/3 16:15,0,0,0,0,0,0,0,0
2003/2/3 16:30,0.066976,0,0,0,9.8320768,0,0,0
2003/2/3 16:45,0.089999,0,0,0,13.2118532,0,0,0
2003/2/3 17:00,0.08855,0,0,0,12.99914,0,0,0
2003/2/3 17:15,0.083076,0,0,0,12.1955568,0,0,0
2003/2/3 17:30,0.082754,0,0,0,12.1482872,0,0,0
2003/2/3 17:45,0.082271,0,0,0,12.0773828,0,0,0
2003/2/3 18:00,0.0805,0,0,0,11.8174,0,0,0
2003/2/3 18:15,0.083398,0,0,0,12.2428264,0,0,0
2003/2/3 18:30,0.083237,0,0,0,12.2191916,0,0,0
2003/2/3 18:45,0.080178,0,0,0,11.7701304,0,0,0
2003/2/3 19:00,0.084686,0,0,0,12.4319048,0,0,0
2003/2/3 19:15,0.082432,0,0,0,12.1010176,0,0,0
2003/2/3 19:30,0.077763,0,0,0,11.4156084,0,0,0
2003/2/3 19:45,0.085008,0,0,0,12.4791744,0,0,0
2003/2/3 20:00,0.079534,0,0,0,11.6755912,0,0,0
2003/2/3 20:15,0.076797,0,0,0,11.2737996,0,0,0
2003/2/3 20:30,0.080661,0,0,0,11.8410348,0,0,0
2003/2/3 20:45,0.084847,0,0,0,12.4555396,0,0,0
2003/2/3 21:00,0.077924,0,0,0,11.4392432,0,0,0
2003/2/3 21:15,0.085008,0,0,0,12.4791744,0,0,0
2003/2/3 21:30,0.079051,0,0,0,11.6046868,0,0,0
2003/2/3 21:45,0.085652,0,0,0,12.5737136,0,0,0
2003/2/3 22:00,0.079534,0,0,0,11.6755912,0,0,0
2003/2/3 22:15,0.085008,0,0,0,12.4791744,0,0,0
2003/2/3 22:30,0.085169,0,0.153433,0,12.5028092,0,22.5239644,0
2003/2/3 22:45,0.086135,0,0.533071,0,12.644618,0,78.2548228,0
2003/2/3 23:00,0.043792,0,0.197064,0,6.4286656,0,28.9289952,0
2003/2/3 23:15,0.029624,0,0.15134,0,4.3488032,0,22.216712,0
2003/2/3 23:30,0.011109,0,0,0,1.6308012,0,0,0
2003/2/3 23:45,0.049105,0,0,0,7.208614,0,0,0
2003/2/4 0:00,0.018354,0,0,0,2.6943672,0,0,0
2003/2/4 0:15,0.063112,0,0,0,9.2648416,0,0,0
2003/2/4 0:30,0.053452,0,0,0,7.8467536,0,0,0
2003/2/4 0:45,0.019964,0,0,0,2.9307152,0,0,0
2003/2/4 1:00,0.040894,0,0,0,6.0032392,0,0,0
2003/2/4 1:15,0.035903,0,0.06279,0,5.2705604,0,9.217572,0
2003/2/4 1:30,0.000161,0,0.119462,0,0.0236348,0,17.5370216,0
2003/2/4 1:45,0,0,0,0,0,0,0,0
2003/2/4 2:00,0,0,0,0,0,0,0,0
2003/2/4 2:15,0,0,0,0,0,0,0,0
2003/2/4 2:30,0,0,0,0,0,0,0,0
2003/2/4 2:45,0,0,0,0,0,0,0,0
2003/2/4 3:00,0,0,0,0,0,0,0,0
2003/2/4 3:15,0,0,0,0,0,0,0,0
2003/2/4 3:30,0,0,0,0,0,0,0,0
2003/2/4 3:45,0,0,0,0,0,0,0,0
2003/2/4 4:00,0,0,0,0,0,0,0,0
2003/2/4 4:15,0,0,0,0,0,0,0,0
2003/2/4 4:30,0,0,0,0,0,0,0,0
2003/2/4 4:45,0,0,0,0,0,0,0,0
2003/2/4 5:00,0,0,0,0,0,0,0,0
2003/2/4 5:15,0,0,0,0,0,0,0,0
2003/2/4 5:30,0,0,0,0,0,0,0,0
2003/2/4 5:45,0.051681,0,0,0,7.5867708,0,0,0
2003/2/4 6:00,0.094185,0,0,0,13.826358,0,0,0
2003/2/4 6:15,0.089194,0,0,0,13.0936792,0,0,0
2003/2/4 6:30,0.088711,0,0,0,13.0227748,0,0,0
2003/2/4 6:45,0.088711,0,0,0,13.0227748,0,0,0
2003/2/4 7:00,0.08855,0,0,0,12.99914,0,0,0
2003/2/4 7:15,0.08855,0,0,0,12.99914,0,0,0
2003/2/4 7:30,0.083559,0,0,0,12.2664612,0,0,0
2003/2/4 7:45,0.082915,0,0,0,12.171922,0,0,0
2003/2/4 8:00,0.083398,0,0,0,12.2428264,0,0,0
2003/2/4 8:15,0.078407,0,0.179998,0,11.5101476,0,26.4237064,0
2003/2/4 8:30,0.084364,0,0,0,12.3846352,0,0,0
2003/2/4 8:45,0.027853,0,0,0,4.0888204,0,0,0
2003/2/4 9:00,0.004508,0,0,0,0.6617744,0,0,0
2003/2/4 9:15,0,0,0,0,0,0,0,0
2003/2/4 9:30,0,0,0,0,0,0,0,0
2003/2/4 9:45,0,0,0,0,0,0,0,0
2003/2/4 10:00,0,0,0,0,0,0,0,0
2003/2/4 10:15,0,0,0,0,0,0,0,0
2003/2/4 10:30,0,0,0,0,0,0,0,0
2003/2/4 10:45,0,0,0,0,0,0,0,0
2003/2/4 11:00,0,0,0,0,0,0,0,0
2003/2/4 11:15,0,0,0,0,0,0,0,0
2003/2/4 11:30,0,0,0,0,0,0,0,0
2003/2/4 11:45,0,0,0,0,0,0,0,0
2003/2/4 12:00,0,0,0,0,0,0,0,0
2003/2/4 12:15,0,0,0,0,0,0,0,0
2003/2/4 12:30,0,0,0,0,0,0,0,0
2003/2/4 12:45,0,0,0,0,0,0,0,0
2003/2/4 13:00,0,0,0,0,0,0,0,0
2003/2/4 13:15,0,0,0,0,0,0,0,0
2003/2/4 13:30,0,0,0,0,0,0,0,0
2003/2/4 13:45,0,0,0,0,0,0,0,0
2003/2/4 14:00,0,0,0,0,0,0,0,0
2003/2/4 14:15,0,0,0,0,0,0,0,0
2003/2/4 14:30,0,0,0,0,0,0,0,0
2003/2/4 14:45,0,0,0,0,0,0,0,0
2003/2/4 15:00,0,0,0,0,0,0,0,0
2003/2/4 15:15,0,0,0,0,0,0,0,0
2003/2/4 15:30,0,0,0,0,0,0,0,0
2003/2/4 15:45,0,0,0,0,0,0,0,0
2003/2/4 16:00,0,0,0,0,0,0,0,0
2003/2/4 16:15,0,0,0,0,0,0,0,0
2003/2/4 16:30,0,0,0,0,0,0,0,0
2003/2/4 16:45,0,0,0,0,0,0,0,0
2003/2/4 17:00,0,0,0,0,0,0,0,0
2003/2/4 17:15,0,0,0,0,0,0,0,0
2003/2/4 17:30,0,0,0,0,0,0,0,0
2003/2/4 17:45,0,0,0,0,0,0,0,0
2003/2/4 18:00,0,0,0,0,0,0,0,0
2003/2/4 18:15,0,0,0,0,0,0,0,0
2003/2/4 18:30,0,0,0,0,0,0,0,0
2003/2/4 18:45,0,0,0,0,0,0,0,0
2003/2/4 19:00,0,0,0,0,0,0,0,0
2003/2/4 19:15,0.08694,0,0,0,12.762792,0,0,0
2003/2/4 19:30,0.087262,0,0,0,12.8100616,0,0,0
2003/2/4 19:45,0.083398,0,0,0,12.2428264,0,0,0
2003/2/4 20:00,0.084042,0,0,0,12.3373656,0,0,0
2003/2/4 20:15,0.083076,0,0,0,12.1955568,0,0,0
2003/2/4 20:30,0.079695,0,0,0,11.699226,0,0,0
2003/2/4 20:45,0.079373,0,0,0,11.6519564,0,0,0
2003/2/4 21:00,0.086779,0,0,0,12.7391572,0,0,0
2003/2/4 21:15,0.083559,0,0,0,12.2664612,0,0,0
2003/2/4 21:30,0.083076,0,0,0,12.1955568,0,0,0
2003/2/4 21:45,0.078407,0,0,0,11.5101476,0,0,0
2003/2/4 22:00,0.08211,0,0,0,12.053748,0,0,0
2003/2/4 22:15,0.08372,0,0,0,12.290096,0,0,0
2003/2/4 22:30,0.063273,0,0,0,9.2884764,0,0,0
2003/2/4 22:45,0.022379,0,0,0,3.2852372,0,0,0
2003/2/4 23:00,0.009499,0,0,0,1.3944532,0,0,0
2003/2/4 23:15,0.081627,0,0.110768,0,11.9828436,0,16.2607424,0
2003/2/4 23:30,0.077763,0,0.292215,0,11.4156084,0,42.897162,0
2003/2/4 23:45,0.031395,0,0.130732,0,4.608786,0,19.1914576,0
2003/2/5 0:00,0.010787,0,0.02254,0,1.5835316,0,3.308872,0
2003/2/5 0:15,0.0161,0,0.135562,0,2.36348,0,19.9005016,0
2003/2/5 0:30,0.015778,0,0,0,2.3162104,0,0,0
2003/2/5 0:45,0.079534,0,0,0,11.6755912,0,0,0
2003/2/5 1:00,0.080983,0,0,0,11.8883044,0,0,0
2003/2/5 1:15,0.047495,0,0,0,6.972266,0,0,0
2003/2/5 1:30,0,0,0,0,0,0,0,0
2003/2/5 1:45,0,0,0,0,0,0,0,0
2003/2/5 2:00,0.005635,0,0.165347,0,0.827218,0,24.2729396,0
2003/2/5 2:15,0,0,0,0,0,0,0,0
2003/2/5 2:30,0,0,0,0,0,0,0,0
2003/2/5 2:45,0,0,0,0,0,0,0,0
2003/2/5 3:00,0,0,0,0,0,0,0,0
2003/2/5 3:15,0,0,0,0,0,0,0,0
2003/2/5 3:30,0,0,0,0,0,0,0,0
2003/2/5 3:45,0,0,0,0,0,0,0,0
2003/2/5 4:00,0,0,0,0,0,0,0,0
2003/2/5 4:15,0,0,0,0,0,0,0,0
2003/2/5 4:30,0,0,0,0,0,0,0,0
2003/2/5 4:45,0,0,0,0,0,0,0,0
2003/2/5 5:00,0,0,0,0,0,0,0,0
2003/2/5 5:15,0,0,0,0,0,0,0,0
2003/2/5 5:30,0,0,0,0,0,0,0,0
2003/2/5 5:45,0,0,0,0,0,0,0,0
2003/2/5 6:00,0,0,0,0,0,0,0,0
2003/2/5 6:15,0,0,0,0,0,0,0,0
2003/2/5 6:30,0.08211,0,0,0,12.053748,0,0,0
2003/2/5 6:45,0.09016,0,0,0,13.235488,0,0,0
2003/2/5 7:00,0.087423,0,0,0,12.8336964,0,0,0
2003/2/5 7:15,0.085169,0,0,0,12.5028092,0,0,0
2003/2/5 7:30,0.088389,0,0,0,12.9755052,0,0,0
2003/2/5 7:45,0.081949,0,0,0,12.0301132,0,0,0
2003/2/5 8:00,0.087584,0,0,0,12.8573312,0,0,0
2003/2/5 8:15,0.083881,0,0,0,12.3137308,0,0,0
2003/2/5 8:30,0.078246,0,0,0,11.4865128,0,0,0
2003/2/5 8:45,0.084203,0,0.099337,0,12.3610004,0,14.5826716,0
2003/2/5 9:00,0.083559,0,0,0,12.2664612,0,0,0
2003/2/5 9:15,0.037352,0,0,0,5.4832736,0,0,0
2003/2/5 9:30,0.016261,0,0,0,2.3871148,0,0,0
2003/2/5 9:45,0.009177,0,0,0,1.3471836,0,0,0
2003/2/5 10:00,0.010787,0,0,0,1.5835316,0,0,0
2003/2/5 10:15,0.017066,0,0,0,2.5052888,0,0,0
2003/2/5 10:30,0.013202,0,0,0,1.9380536,0,0,0
2003/2/5 10:45,0.015456,0,0,0,2.2689408,0,0,0
2003/2/5 11:00,0.014651,0,0,0,2.1507668,0,0,0
2003/2/5 11:15,0.011109,0,0,0,1.6308012,0,0,0
2003/2/5 11:30,0.016261,0,0,0,2.3871148,0,0,0
2003/2/5 11:45,0.015939,0,0,0,2.3398452,0,0,0
2003/2/5 12:00,0.01127,0,0,0,1.654436,0,0,0
2003/2/5 12:15,0.009982,0,0,0,1.4653576,0,0,0
2003/2/5 12:30,0.016583,0,0,0,2.4343844,0,0,0
2003/2/5 12:45,0.010787,0,0,0,1.5835316,0,0,0
2003/2/5 13:00,0.016261,0,0,0,2.3871148,0,0,0
2003/2/5 13:15,0.015939,0,0,0,2.3398452,0,0,0
2003/2/5 13:30,0.016261,0,0,0,2.3871148,0,0,0
2003/2/5 13:45,0.015456,0,0,0,2.2689408,0,0,0
2003/2/5 14:00,0.012719,0,0,0,1.8671492,0,0,0
2003/2/5 14:15,0.085491,0,0,0,12.5500788,0,0,0
2003/2/5 14:30,0.084847,0,0,0,12.4555396,0,0,0
2003/2/5 14:45,0.083076,0,0,0,12.1955568,0,0,0
2003/2/5 15:00,0.082915,0,0,0,12.171922,0,0,0
2003/2/5 15:15,0.083237,0,0,0,12.2191916,0,0,0
2003/2/5 15:30,0.083237,0,0,0,12.2191916,0,0,0
2003/2/5 15:45,0.083076,0,0,0,12.1955568,0,0,0
2003/2/5 16:00,0.082915,0,0,0,12.171922,0,0,0
2003/2/5 16:15,0.07889,0,0,0,11.581052,0,0,0
2003/2/5 16:30,0.084042,0,0,0,12.3373656,0,0,0
2003/2/5 16:45,0.084525,0,0,0,12.40827,0,0,0
2003/2/5 17:00,0.08211,0,0,0,12.053748,0,0,0
2003/2/5 17:15,0.080017,0,0,0,11.7464956,0,0,0
2003/2/5 17:30,0.083881,0,0,0,12.3137308,0,0,0
2003/2/5 17:45,0.086457,0,0,0,12.6918876,0,0,0
2003/2/5 18:00,0.083237,0,0,0,12.2191916,0,0,0
2003/2/5 18:15,0.081949,0,0,0,12.0301132,0,0,0
2003/2/5 18:30,0.080983,0,0,0,11.8883044,0,0,0
2003/2/5 18:45,0.083076,0,0,0,12.1955568,0,0,0
2003/2/5 19:00,0.043148,0,0,0,6.3341264,0,0,0
2003/2/5 19:15,0.013846,0,0,0,2.0325928,0,0,0
2003/2/5 19:30,0.02576,0,0,0,3.781568,0,0,0
2003/2/5 19:45,0.046207,0,0,0,6.7831876,0,0,0
2003/2/5 20:00,0.087745,0,0,0,12.880966,0,0,0
2003/2/5 20:15,0.082432,0,0,0,12.1010176,0,0,0
2003/2/5 20:30,0.08211,0,0,0,12.053748,0,0,0
2003/2/5 20:45,0.0805,0,0,0,11.8174,0,0,0
2003/2/5 21:00,0.083237,0,0,0,12.2191916,0,0,0
2003/2/5 21:15,0.084203,0,0,0,12.3610004,0,0,0
2003/2/5 21:30,0.081466,0,0,0,11.9592088,0,0,0
2003/2/5 21:45,0.079373,0,0,0,11.6519564,0,0,0
2003/2/5 22:00,0.074865,0,0,0,10.990182,0,0,0
2003/2/5 22:15,0.047978,0,0,0,7.0431704,0,0,0
2003/2/5 22:30,0.078085,0,0,0,11.462878,0,0,0
2003/2/5 22:45,0.043631,0,0,0,6.4050308,0,0,0
2003/2/5 23:00,0.00966,0,0,0,1.418088,0,0,0
2003/2/5 23:15,0.01127,0,0,0,1.654436,0,0,0
2003/2/5 23:30,0.017549,0,0,0,2.5761932,0,0,0
2003/2/5 23:45,0.030912,0,0,0,4.5378816,0,0,0
2003/2/6 0:00,0.026243,0,0,0,3.8524724,0,0,0
2003/2/6 0:15,0.029302,0,0,0,4.3015336,0,0,0
2003/2/6 0:30,0.030912,0,0,0,4.5378816,0,0,0
2003/2/6 0:45,0.012397,0,0,0,1.8198796,0,0,0
2003/2/6 1:00,0,0,0,0,0,0,0,0
2003/2/6 1:15,0,0,0,0,0,0,0,0
2003/2/6 1:30,0,0,0,0,0,0,0,0
2003/2/6 1:45,0,0,0,0,0,0,0,0
2003/2/6 2:00,0,0,0,0,0,0,0,0
2003/2/6 2:15,0,0,0,0,0,0,0,0
2003/2/6 2:30,0,0,0,0,0,0,0,0
2003/2/6 2:45,0,0,0,0,0,0,0,0
2003/2/6 3:00,0,0,0,0,0,0,0,0
2003/2/6 3:15,0,0,0,0,0,0,0,0
2003/2/6 3:30,0,0,0,0,0,0,0,0
2003/2/6 3:45,0,0,0,0,0,0,0,0
2003/2/6 4:00,0,0,0,0,0,0,0,0
2003/2/6 4:15,0,0,0,0,0,0,0,0
2003/2/6 4:30,0,0,0,0,0,0,0,0
2003/2/6 4:45,0,0,0,0,0,0,0,0
2003/2/6 5:00,0,0,0,0,0,0,0,0
2003/2/6 5:15,0,0,0,0,0,0,0,0
2003/2/6 5:30,0,0,0,0,0,0,0,0
2003/2/6 5:45,0,0,0,0,0,0,0,0
2003/2/6 6:00,0,0,0,0,0,0,0,0
2003/2/6 6:15,0,0,0,0,0,0,0,0
2003/2/6 6:30,0,0,0,0,0,0,0,0
2003/2/6 6:45,0.066815,0,0.126546,0,9.808442,0,18.5769528,0
2003/2/6 7:00,0.087745,0,0.083076,0,12.880966,0,12.1955568,0
2003/2/6 7:15,0.089516,0,0,0,13.1409488,0,0,0
2003/2/6 7:30,0.089516,0,0,0,13.1409488,0,0,0
2003/2/6 7:45,0.089033,0,0,0,13.0700444,0,0,0
2003/2/6 8:00,0.087423,0,0,0,12.8336964,0,0,0
2003/2/6 8:15,0.087423,0,0,0,12.8336964,0,0,0
2003/2/6 8:30,0.083559,0,0,0,12.2664612,0,0,0
2003/2/6 8:45,0.084847,0,0.065849,0,12.4555396,0,9.6666332,0
2003/2/6 9:00,0.082432,0,0,0,12.1010176,0,0,0
2003/2/6 9:15,0.088389,0,0,0,12.9755052,0,0,0
2003/2/6 9:30,0.088228,0,0,0,12.9518704,0,0,0
2003/2/6 9:45,0.029624,0,0,0,4.3488032,0,0,0
2003/2/6 10:00,0,0,0,0,0,0,0,0
2003/2/6 10:15,0,0,0,0,0,0,0,0
2003/2/6 10:30,0,0,0,0,0,0,0,0
2003/2/6 10:45,0,0,0,0,0,0,0,0
2003/2/6 11:00,0,0,0,0,0,0,0,0
2003/2/6 11:15,0,0,0,0,0,0,0,0
2003/2/6 11:30,0,0,0,0,0,0,0,0
2003/2/6 11:45,0,0,0,0,0,0,0,0
2003/2/6 12:00,0,0,0,0,0,0,0,0
2003/2/6 12:15,0,0,0,0,0,0,0,0
2003/2/6 12:30,0,0,0,0,0,0,0,0
2003/2/6 12:45,0,0,0,0,0,0,0,0
2003/2/6 13:00,0,0,0,0,0,0,0,0
2003/2/6 13:15,0,0,0,0,0,0,0,0
2003/2/6 13:30,0,0,0,0,0,0,0,0
2003/2/6 13:45,0,0,0,0,0,0,0,0
2003/2/6 14:00,0,0,0,0,0,0,0,0
2003/2/6 14:15,0,0,0,0,0,0,0,0
2003/2/6 14:30,0,0,0,0,0,0,0,0
2003/2/6 14:45,0,0,0,0,0,0,0,0
2003/2/6 15:00,0,0,0,0,0,0,0,0
2003/2/6 15:15,0,0,0,0,0,0,0,0
2003/2/6 15:30,0,0,0,0,0,0,0,0
2003/2/6 15:45,0,0,0,0,0,0,0,0
2003/2/6 16:00,0,0,0,0,0,0,0,0
2003/2/6 16:15,0,0,0,0,0,0,0,0
2003/2/6 16:30,0,0,0,0,0,0,0,0
2003/2/6 16:45,0,0,0,0,0,0,0,0
2003/2/6 17:00,0,0,0,0,0,0,0,0
2003/2/6 17:15,0,0,0,0,0,0,0,0
2003/2/6 17:30,0,0,0,0,0,0,0,0
2003/2/6 17:45,0,0,0,0,0,0,0,0
2003/2/6 18:00,0,0,0,0,0,0,0,0
2003/2/6 18:15,0,0,0,0,0,0,0,0
2003/2/6 18:30,0,0,0,0,0,0,0,0
2003/2/6 18:45,0,0,0,0,0,0,0,0
2003/2/6 19:00,0,0,0,0,0,0,0,0
2003/2/6 19:15,0,0,0,0,0,0,0,0
2003/2/6 19:30,0,0,0,0,0,0,0,0
2003/2/6 19:45,0,0,0,0,0,0,0,0
2003/2/6 20:00,0,0,0,0,0,0,0,0
2003/2/6 20:15,0,0,0,0,0,0,0,0
2003/2/6 20:30,0.080983,0,0,0,11.8883044,0,0,0
2003/2/6 20:45,0.091126,0,0,0,13.3772968,0,0,0
2003/2/6 21:00,0.089355,0,0,0,13.117314,0,0,0
2003/2/6 21:15,0.088872,0,0,0,13.0464096,0,0,0
2003/2/6 21:30,0.088711,0,0,0,13.0227748,0,0,0
2003/2/6 21:45,0.088711,0,0,0,13.0227748,0,0,0
2003/2/6 22:00,0.088872,0,0,0,13.0464096,0,0,0
2003/2/6 22:15,0.088711,0,0,0,13.0227748,0,0,0
2003/2/6 22:30,0.088711,0,0,0,13.0227748,0,0,0
2003/2/6 22:45,0.088872,0,0,0,13.0464096,0,0,0
2003/2/6 23:00,0.088872,0,0,0,13.0464096,0,0,0
2003/2/6 23:15,0.090965,0,0.451927,0,13.353662,0,66.3428836,0
2003/2/6 23:30,0.085008,0,0.41216,0,12.4791744,0,60.505088,0
2003/2/6 23:45,0.06923,0,0.096117,0,10.162964,0,14.1099756,0